Reykjavik, Iceland

5:04 PM GMT on June 21, 2018 (GMT +0000)
Reykjavik

Weather History for BIRK - August, 2017

Change the Weather History Date:

Saturday, August 12, 2017

  Actual Average Record
Temperature  
Mean Temperature 50 °F -  
Max Temperature 56 °F 56 °F 68 °F (2004)
Min Temperature 45 °F 47 °F 41 °F (2002)
Degree Days  
Heating Degree Days 14    
Moisture  
Dew Point 41 °F    
Average Humidity 70    
Maximum Humidity 82    
Minimum Humidity 39    
Precipitation  
Precipitation 0.00 in - - ()
Sea Level Pressure  
Sea Level Pressure 29.87 in    
Wind  
Wind Speed 6 mph ()    
Max Wind Speed 18 mph    
Max Gust Speed -    
Visibility 6.7 miles    
Events      
Averages and records for this station are not official NWS values.
T = Trace of Precipitation, MM = Missing Value Source: Averaged Metar Reports

Daily Weather History Graph

Daily Weather History Graph

Search for Another Location

Airport or City:

Astronomy

Aug. 12, 2017 Rise Set
Actual Time 5:09 AM GMT 9:53 PM GMT
Civil Twilight 4:01 AM GMT 11:00 PM GMT
Nautical Twilight 2:05 AM GMT 1:00 AM GMT
Astronomical Twilight Sun does not set Sun does not set
Moon 10:55 PM GMT (8/12) 11:32 AM GMT (8/12)
Length of Visible Light 18h 59m
Length of Day
16h 43m
Waning Gibbous, 77% of the Moon is Illuminated
Aug 12
Waning Gibbous
Aug 15
Last Quarter
Aug 21
New
Aug 29
First Quarter
Sep 6
Full

Hourly Weather History & Observations

Time (GMT) Temp. Windchill Dew Point Humidity Pressure Visibility Wind Dir Wind Speed Gust Speed Precip Events Conditions
12:00 AM 49 °F - 43 °F 72% 29.87 in 37 mi West 3.5 mph - -   Partly Cloudy
12:00 AM 48.2 °F - 41.0 °F 76% 29.86 in 6.2 mi WNW 6.9 mph - N/A   Mostly Cloudy
1:00 AM 48.2 °F - 41.0 °F 76% 29.86 in 6.2 mi West 5.8 mph - N/A   Scattered Clouds
2:00 AM 50.0 °F - 42.8 °F 76% 29.86 in 6.2 mi West 5.8 mph - N/A   Mostly Cloudy
3:00 AM 47 °F - 43 °F 82% 29.87 in 25 mi South 2.3 mph - -   Partly Cloudy
3:00 AM 48.2 °F - 42.8 °F 82% 29.86 in 6.2 mi SSW 6.9 mph - N/A   Mostly Cloudy
4:00 AM 48.2 °F - 42.8 °F 82% 29.86 in 6.2 mi SW 6.9 mph - N/A   Mostly Cloudy
5:00 AM 48.2 °F - 42.8 °F 82% 29.86 in 6.2 mi SSE 3.5 mph - N/A   Overcast
6:00 AM 46 °F - 42 °F 81% 29.87 in 19 mi South 3.5 mph - -   Mostly Cloudy
6:00 AM 46.4 °F 44.3 °F 41.0 °F 81% 29.86 in 6.2 mi SSE 4.6 mph - N/A   Mostly Cloudy
7:00 AM 46.4 °F 43.5 °F 41.0 °F 81% 29.86 in 6.2 mi South 5.8 mph - N/A   Mostly Cloudy
8:00 AM 48.2 °F - 41.0 °F 76% 29.86 in 6.2 mi SSE 4.6 mph - N/A   Mostly Cloudy
9:00 AM 49 °F - 44 °F 76% 29.88 in 37 mi SSW 2.3 mph - -   Scattered Clouds
9:00 AM 48.2 °F - 42.8 °F 82% 29.86 in 6.2 mi South 3.5 mph - N/A   Mostly Cloudy
10:00 AM 51.8 °F - 41.0 °F 67% 29.86 in 6.2 mi Variable 2.3 mph - N/A   Scattered Clouds
11:00 AM 51.8 °F - 42.8 °F 71% 29.89 in 6.2 mi NNW 6.9 mph - N/A   Partly Cloudy
12:00 PM 54 °F - 36 °F 39% 29.88 in 47 mi WNW 8.1 mph - -   Scattered Clouds
12:00 PM 53.6 °F - 35.6 °F 51% 29.86 in 6.2 mi NW 9.2 mph - N/A   Partly Cloudy
1:00 PM 55.4 °F - 39.2 °F 54% 29.89 in 6.2 mi WNW 15.0 mph - N/A   Partly Cloudy
2:00 PM 55.4 °F - 41.0 °F 58% 29.89 in 6.2 mi WNW 15.0 mph - N/A   Partly Cloudy
3:00 PM 55 °F - 43 °F 54% 29.88 in 44 mi WNW 9.2 mph - -   Scattered Clouds
3:00 PM 53.6 °F - 42.8 °F 67% 29.86 in 6.2 mi WNW 15.0 mph - N/A   Partly Cloudy
4:00 PM 55.4 °F - 41.0 °F 58% 29.89 in 6.2 mi WNW 18.4 mph - N/A   Partly Cloudy
5:00 PM 53.6 °F - 42.8 °F 67% 29.86 in 6.2 mi WNW 16.1 mph - N/A   Partly Cloudy
6:00 PM 53 °F - 44 °F 64% 29.89 in 37 mi NW 10.4 mph - -   Scattered Clouds
6:00 PM 53.6 °F - 42.8 °F 67% 29.86 in 6.2 mi WNW 17.3 mph - N/A   Partly Cloudy
7:00 PM 53.6 °F - 42.8 °F 67% 29.89 in 6.2 mi WNW 15.0 mph - N/A   Partly Cloudy
8:00 PM 51.8 °F - 39.2 °F 62% 29.89 in 6.2 mi WNW 11.5 mph - N/A   Partly Cloudy
9:00 PM 50 °F - 42 °F 66% 29.89 in 25 mi WNW 4.6 mph - -   Partly Cloudy
9:00 PM 50.0 °F - 41.0 °F 71% 29.89 in 6.2 mi WNW 10.4 mph - N/A   Scattered Clouds
10:00 PM 48.2 °F - 39.2 °F 71% 29.89 in 6.2 mi WNW 8.1 mph - N/A   Partly Cloudy
11:00 PM 48.2 °F - 39.2 °F 71% 29.86 in 6.2 mi WNW 8.1 mph - N/A   Partly Cloudy